Regional Weather Roundup
Issued by NWS

Home | Current Version | Previous Version | Text Only | Print | Product List | Glossary On
Versions: 1 2 3 4 5 6 7 8 9 10 11 12 13 14 15 16 17 18 19 20 21 22 23 24 25 26 27
000
ASUS45 KCYS 081810
RWRWY

WYOMING REGIONAL WEATHER ROUNDUP
NATIONAL WEATHER SERVICE CHEYENNE WY
1100 AM MST THU DEC 08 2016

NOTE:  "FAIR" INDICATES FEW OR NO CLOUDS BELOW 12,000 FEET
WITH NO SIGNIFICANT WEATHER AND/OR OBSTRUCTIONS TO VISIBILITY.

WYZ001-081900-
YELLOWSTONE NATIONAL PARK

CITY           SKY/WX    TMP DP  RH WIND       PRES   REMARKS
LK YELLOWSTONE   N/A      4  -1  80 VRB5      30.12F WCI  -5
6HR MIN TEMP: -16; 6HR MAX TEMP:   4;

W YELLOWSTONE  NOT AVBL

$$
WYZ002>013-054>058-071-098>099-081900-
NORTHERN WYOMING

CITY           SKY/WX    TMP DP  RH WIND       PRES   REMARKS
JACKSON        FAIR      -8  -9  92 CALM      30.26F
CODY           FAIR       4  -3  73 S5        30.31F WCI  -5
GREYBULL       FAIR       3  -5  69 SE5       30.44F WCI  -6
6HR MIN TEMP:  -6; 6HR MAX TEMP:   3;

WORLAND        FAIR       3  -3  76 CALM      30.40F
6HR MIN TEMP: -11; 6HR MAX TEMP:   3;

SHERIDAN       FAIR       1  -8  66 CALM      30.44F
6HR MIN TEMP: -13; 6HR MAX TEMP:   1;

BUFFALO        FAIR       7  -6  55 S10       30.35F WCI  -8
6HR MIN TEMP:  -6; 6HR MAX TEMP:   7;

GILLETTE       FAIR       3  -3  76 S6        30.43F WCI  -8
6HR MIN TEMP: -18; 6HR MAX TEMP:   3;

HULETT         FAIR       1  -8  66 CALM      30.46F
NEWCASTLE      FAIR       3  -6  66 CALM      30.49F

$$
WYZ014>020-022>026-101>103-081900-
CENTRAL WYOMING

CITY           SKY/WX    TMP DP  RH WIND       PRES   REMARKS
BIG PINEY      FAIR       0  -5  79 VRB3      30.24F
6HR MIN TEMP: -20; 6HR MAX TEMP:   0;

PINEDALE       FAIR      -4  -8  84 N6        30.23F WCI -16
DUBOIS         FAIR       5  -8  56 CALM      30.11F
LANDER         FAIR       4  -5  66 N3        30.28F
6HR MIN TEMP:  -5; 6HR MAX TEMP:   4;

RIVERTON       FAIR       5  -1  76 CALM      30.30F
6HR MIN TEMP:  -7; 6HR MAX TEMP:   5;

CASPER         FAIR      -9 -11  91 CALM      30.35F
6HR MIN TEMP: -33; 6HR MAX TEMP:  -9;

DOUGLAS        FAIR      -6 -10  83 CALM      30.41F
6HR MIN TEMP: -22; 6HR MAX TEMP:  -6;


$$
WYZ021-027>030-104>119-081900-
SOUTHERN WYOMING

CITY           SKY/WX    TMP DP  RH WIND       PRES   REMARKS
EVANSTON       CLOUDY     9  -2  61 E10       30.17S WCI  -5
6HR MIN TEMP:   1; 6HR MAX TEMP:   9;

FORT BRIDGER   FAIR       1  -3  83 N6        30.24S WCI -11
ROCK SPRINGS   FAIR       1  -4  79 CALM      30.23S
6HR MIN TEMP:  -9; 6HR MAX TEMP:   1;

DIXON          FAIR      10  -4  52 CALM      30.29F
RAWLINS        FAIR       4  -5  66 SE3       30.24F
6HR MIN TEMP: -18; 6HR MAX TEMP:   4;

SARATOGA       FAIR      12   0  57 SE9       30.22F WCI   0
LARAMIE        FAIR      12  -6  44 S9        30.20F WCI   0
6HR MIN TEMP: -19; 6HR MAX TEMP:  12;

CHEYENNE       FAIR      10   1  67 S8        30.30F WCI  -2
6HR MIN TEMP: -15; 6HR MAX TEMP:  10;

TORRINGTON     FAIR       2  -4  76 W5        30.48F WCI  -8
6HR MIN TEMP: -13; 6HR MAX TEMP:   2;

PINE BLUFFS    FAIR       7   0  72 S7        30.41F WCI  -5

$$




USA.gov is the U.S. government's official web portal to all federal, state and local government web resources and services.